Вернуться в каталог

COSMOS 2268

АктивенВоенныеPO
NORAD 22999·PAYLOAD·🇷🇺 Russia

Запущен Feb 12, 1994 с Plesetsk Cosmodrome

Loading…

Ближайшие Пролёты (ближайшие 24 часа)

TLE

СвежийSource: Space-Track

Эпоха: Sep 14, 2026, 13:20 UTC

1 22999U 94011A   26257.55600752  .00000007  00000-0 -17338-4 0  9992
2 22999  82.5726 283.5937 0010246   7.2296 160.8413 12.61229406500022

Отслеживайте COSMOS 2268 в реальном времени с AllMySat

Download on the App Store